| time (UTC) | temp F | wind direction | speed MPH | gust MPH | rain 1hr in | rain 24hr in | rain mn in | humidity % | barometer mb |
| 20260906200105 | 80 | 19 | 9.0 | 21.0 | 0.01 | 0.02 | 0.02 | 68 | 1013.4 |
| 20260906194558 | 78 | 5 | 4.0 | 12.0 | 0.00 | 0.01 | 0.01 | 70 | 1013.6 |
| 20260906193056 | 77 | 26 | 5.0 | 13.0 | 0.00 | 0.01 | 0.01 | 73 | 1014.0 |
| 20260906191608 | 76 | 13 | 4.0 | 11.0 | 0.00 | 0.01 | 0.01 | 75 | 1014.0 |
| 20260906190059 | 75 | 31 | 2.0 | 11.0 | 0.00 | 0.01 | 0.01 | 75 | 1014.2 |
| 20260906184606 | 75 | 47 | 2.0 | 7.0 | 0.00 | 0.01 | 0.01 | 72 | 1014.2 |
| 20260906183054 | 75 | 20 | 2.0 | 9.0 | 0.00 | 0.01 | 0.01 | 70 | 1014.3 |
| 20260906181602 | 75 | 0 | 1.0 | 4.0 | 0.00 | 0.01 | 0.01 | 69 | 1014.5 |
| 20260906180119 | 75 | 319 | 1.0 | 9.0 | 0.00 | 0.01 | 0.01 | 67 | 1014.6 |
| 20260906174602 | 76 | 333 | 2.0 | 10.0 | 0.00 | 0.01 | 0.01 | 64 | 1014.6 |
| 20260906173059 | 76 | 343 | 3.0 | 11.0 | 0.00 | 0.01 | 0.01 | 63 | 1014.3 |
| 20260906171557 | 75 | 25 | 2.0 | 10.0 | 0.00 | 0.01 | 0.01 | 65 | 1014.4 |
| 20260906170055 | 76 | 321 | 3.0 | 11.0 | 0.00 | 0.01 | 0.01 | 66 | 1014.4 |
| 20260906164555 | 76 | 320 | 4.0 | 9.0 | 0.00 | 0.01 | 0.01 | 65 | 1014.0 |
| 20260906163104 | 76 | 352 | 1.0 | 6.0 | 0.00 | 0.01 | 0.01 | 67 | 1013.8 |
| 20260906161558 | 76 | 344 | 2.0 | 8.0 | 0.00 | 0.01 | 0.01 | 71 | 1013.8 |
| 20260906160109 | 75 | 351 | 0.0 | 3.0 | 0.00 | 0.01 | 0.01 | 72 | 1013.6 |
| 20260906154609 | 74 | 12 | 1.0 | 4.0 | 0.00 | 0.01 | 0.01 | 72 | 1013.6 |
| 20260906153115 | 73 | 311 | 0.0 | 3.0 | 0.00 | 0.01 | 0.01 | 71 | 1013.5 |
| 20260906151608 | 73 | 302 | 1.0 | 3.0 | 0.00 | 0.01 | 0.01 | 70 | 1013.6 |
| 20260906150058 | 72 | 0 | 0.0 | 4.0 | 0.00 | 0.01 | 0.01 | 68 | 1013.6 |
| 20260906144601 | 72 | 290 | 3.0 | 7.0 | 0.00 | 0.01 | 0.01 | 68 | 1013.4 |
| 20260906143059 | 72 | 319 | 1.0 | 7.0 | 0.00 | 0.01 | 0.01 | 73 | 1013.4 |
| 20260906141602 | 72 | 300 | 2.0 | 9.0 | 0.00 | 0.01 | 0.01 | 74 | 1013.3 |
| 20260906140109 | 72 | 308 | 5.0 | 11.0 | 0.00 | 0.01 | 0.01 | 69 | 1013.0 |
| 20260906134614 | 72 | 283 | 5.0 | 8.0 | 0.00 | 0.01 | 0.01 | 74 | 1012.8 |
| 20260906133109 | 73 | 311 | 3.0 | 5.0 | 0.00 | 0.01 | 0.01 | 67 | 1012.4 |
| 20260906131606 | 73 | 360 | 0.0 | 4.0 | 0.00 | 0.01 | 0.01 | 68 | 1012.2 |
| 20260906130103 | 72 | 13 | 2.0 | 5.0 | 0.00 | 0.01 | 0.01 | 69 | 1012.1 |
| 20260906124603 | 72 | 22 | 3.0 | 6.0 | 0.00 | 0.01 | 0.01 | 72 | 1012.0 |
| 20260906123100 | 72 | 23 | 2.0 | 4.0 | 0.00 | 0.01 | 0.01 | 72 | 1012.0 |
| 20260906121553 | 72 | 24 | 3.0 | 7.0 | 0.00 | 0.01 | 0.01 | 69 | 1012.1 |
| 20260906120125 | 71 | 22 | 3.0 | 5.0 | 0.01 | 0.01 | 0.01 | 75 | 1012.2 |
| 20260906114555 | 70 | 18 | 2.0 | 5.0 | 0.01 | 0.01 | 0.01 | 75 | 1012.3 |
| 20260906113104 | 69 | 360 | 1.0 | 4.0 | 0.01 | 0.01 | 0.01 | 82 | 1012.2 |
| 20260906111607 | 71 | 74 | 1.0 | 4.0 | 0.01 | 0.01 | 0.01 | 86 | 1012.4 |
| 20260906110103 | 72 | 126 | 0.0 | 3.0 | 0.00 | 0.00 | 0.00 | 87 | 1012.4 |
| 20260906104557 | 72 | 140 | 0.0 | 2.0 | 0.00 | 0.00 | 0.00 | 87 | 1012.4 |
| 20260906103111 | 72 | 0 | 1.0 | 3.0 | 0.00 | 0.00 | 0.00 | 87 | 1012.5 |
| 20260906101601 | 72 | 169 | 1.0 | 3.0 | 0.00 | 0.00 | 0.00 | 87 | 1012.4 |
| 20260906094555 | 72 | 0 | 0.0 | 1.0 | 0.00 | 0.00 | 0.00 | 87 | 1012.3 |
| 20260906093100 | 72 | 0 | 0.0 | 2.0 | 0.00 | 0.00 | 0.00 | 87 | 1012.8 |
| 20260906091600 | 72 | 182 | 0.0 | 2.0 | 0.00 | 0.00 | 0.00 | 87 | 1012.6 |
| 20260906090116 | 71 | 0 | 0.0 | 1.0 | 0.00 | 0.00 | 0.00 | 86 | 1012.5 |
| 20260906084558 | 72 | 0 | 0.0 | 3.0 | 0.00 | 0.00 | 0.00 | 86 | 1012.8 |
| 20260906083107 | 72 | 182 | 2.0 | 5.0 | 0.00 | 0.00 | 0.00 | 85 | 1013.1 |
| 20260906081601 | 72 | 254 | 2.0 | 3.0 | 0.00 | 0.00 | 0.00 | 84 | 1013.1 |
| 20260906080122 | 72 | 254 | 1.0 | 3.0 | 0.00 | 0.00 | 0.00 | 83 | 1013.1 |
| 20260906074608 | 73 | 255 | 1.0 | 4.0 | 0.00 | 0.00 | 0.00 | 83 | 1013.0 |
| 20260906073114 | 72 | 0 | 0.0 | 0.0 | 0.00 | 0.00 | 0.00 | 84 | 1013.0 |
| 20260906071602 | 73 | 0 | 0.0 | 0.0 | 0.00 | 0.00 | 0.00 | 84 | 1012.9 |
| 20260906070057 | 72 | 263 | 1.0 | 3.0 | 0.00 | 0.00 | 0.00 | 84 | 1013.0 |
| 20260906064607 | 72 | 0 | 0.0 | 0.0 | 0.00 | 0.00 | 0.00 | 83 | 1013.1 |
| 20260906063057 | 72 | 0 | 0.0 | 3.0 | 0.00 | 0.00 | 0.00 | 83 | 1013.1 |
| 20260906061605 | 73 | 0 | 0.0 | 2.0 | 0.00 | 0.00 | 0.00 | 82 | 1013.0 |
| 20260906060104 | 73 | 266 | 1.0 | 4.0 | 0.00 | 0.00 | 0.00 | 81 | 1012.8 |
| 20260906054603 | 73 | 263 | 1.0 | 6.0 | 0.00 | 0.00 | 0.00 | 80 | 1012.9 |
| 20260906053057 | 73 | 286 | 2.0 | 6.0 | 0.00 | 0.00 | 0.00 | 79 | 1013.0 |
| 20260906051607 | 73 | 269 | 1.0 | 6.0 | 0.00 | 0.00 | 0.00 | 79 | 1013.0 |
| 20260906050110 | 74 | 272 | 3.0 | 6.0 | 0.00 | 0.00 | 0.00 | 76 | 1013.0 |
| 20260906044559 | 74 | 273 | 2.0 | 6.0 | 0.00 | 0.00 | 0.00 | 75 | 1013.0 |
| 20260906043104 | 73 | 271 | 2.0 | 3.0 | 0.00 | 0.00 | 0.00 | 75 | 1013.0 |
| 20260906041605 | 73 | 269 | 1.0 | 2.0 | 0.00 | 0.00 | 0.00 | 76 | 1013.0 |
| 20260906034639 | 73 | 271 | 1.0 | 2.0 | 0.00 | 0.00 | 0.00 | 76 | 1012.9 |
| 20260906033056 | 73 | 0 | 0.0 | 0.0 | 0.00 | 0.00 | 0.00 | 74 | 1012.7 |
| 20260906031554 | 74 | 0 | 0.0 | 3.0 | 0.00 | 0.00 | 0.00 | 73 | 1012.8 |
| 20260906030056 | 74 | 0 | 0.0 | 3.0 | 0.00 | 0.00 | 0.00 | 72 | 1012.7 |
| 20260906024602 | 74 | 277 | 0.0 | 3.0 | 0.00 | 0.00 | 0.00 | 72 | 1012.7 |
| 20260906023058 | 73 | 271 | 1.0 | 4.0 | 0.00 | 0.00 | 0.00 | 72 | 1012.6 |
| 20260906021604 | 74 | 0 | 0.0 | 4.0 | 0.00 | 0.00 | 0.00 | 77 | 1012.6 |
| 20260906020100 | 74 | 250 | 1.0 | 6.0 | 0.00 | 0.00 | 0.00 | 76 | 1012.7 |
| 20260906014554 | 74 | 360 | 2.0 | 8.0 | 0.00 | 0.00 | 0.00 | 77 | 1012.7 |
| 20260906013106 | 75 | 259 | 4.0 | 9.0 | 0.00 | 0.00 | 0.00 | 75 | 1012.7 |
| 20260906011556 | 76 | 256 | 5.0 | 10.0 | 0.00 | 0.00 | 0.00 | 70 | 1012.8 |
| 20260906010058 | 79 | 262 | 5.0 | 9.0 | 0.00 | 0.00 | 0.00 | 67 | 1012.7 |
| 20260906004603 | 78 | 263 | 5.0 | 9.0 | 0.00 | 0.00 | 0.00 | 68 | 1012.5 |
| 20260906003059 | 79 | 360 | 4.0 | 10.0 | 0.00 | 0.00 | 0.00 | 67 | 1012.6 |
| 20260906001555 | 80 | 254 | 4.0 | 10.0 | 0.00 | 0.00 | 0.00 | 66 | 1012.4 |
| 20260906000106 | 80 | 360 | 4.0 | 10.0 | 0.00 | 0.00 | 0.00 | 64 | 1012.5 |
| 20260905234620 | 79 | 244 | 6.0 | 14.0 | 0.00 | 0.00 | 0.00 | 67 | 1012.6 |
| 20260905233102 | 79 | 360 | 7.0 | 12.0 | 0.00 | 0.00 | 0.00 | 65 | 1012.5 |
| 20260905231555 | 79 | 249 | 6.0 | 12.0 | 0.00 | 0.00 | 0.00 | 63 | 1012.5 |
| 20260905230104 | 79 | 257 | 7.0 | 12.0 | 0.00 | 0.00 | 0.00 | 66 | 1012.5 |
| 20260905224553 | 79 | 238 | 6.0 | 12.0 | 0.00 | 0.00 | 0.00 | 66 | 1012.7 |
| 20260905223057 | 80 | 234 | 7.0 | 12.0 | 0.00 | 0.00 | 0.00 | 64 | 1012.8 |
| 20260905221601 | 80 | 300 | 6.0 | 14.0 | 0.00 | 0.00 | 0.00 | 62 | 1012.9 |
| 20260905214605 | 80 | 360 | 6.0 | 12.0 | 0.00 | 0.00 | 0.00 | 54 | 1013.2 |
| 20260905213101 | 80 | 360 | 6.0 | 11.0 | 0.00 | 0.00 | 0.00 | 62 | 1013.3 |
| 20260905211556 | 79 | 270 | 7.0 | 12.0 | 0.00 | 0.00 | 0.00 | 66 | 1013.5 |
| 20260905210105 | 79 | 360 | 5.0 | 11.0 | 0.00 | 0.00 | 0.00 | 62 | 1013.5 |
| 20260905204555 | 80 | 248 | 5.0 | 11.0 | 0.00 | 0.00 | 0.00 | 65 | 1013.8 |
| 20260905203111 | 78 | 250 | 7.0 | 11.0 | 0.00 | 0.00 | 0.00 | 67 | 1013.9 |
| 20260905201557 | 77 | 248 | 5.0 | 10.0 | 0.00 | 0.00 | 0.00 | 69 | 1014.0 |